TimeCST,TemperatureF,Dew PointF,Humidity,Sea Level PressureIn,VisibilityMPH,Wind Direction,Wind SpeedMPH,Gust SpeedMPH,PrecipitationIn,Events,Conditions,WindDirDegrees,DateUTC
12:03 AM,46.4,44.6,93,30.02,6.0,SW,6.9,-,0.00,Rain,Light Rain,220,2013-02-19 06:03:00
12:23 AM,46.4,46.4,100,30.02,5.0,Calm,Calm,-,0.01,Rain,Rain,0,2013-02-19 06:23:00
12:56 AM,45.9,45.0,97,30.02,9.0,South,8.1,-,0.02,Rain,Light Rain,170,2013-02-19 06:56:00
1:36 AM,46.4,44.6,93,29.98,6.0,South,8.1,-,0.01,Rain,Light Rain,180,2013-02-19 07:36:00
1:45 AM,46.4,46.4,100,29.96,6.0,SSE,10.4,-,0.02,Rain,Light Rain,160,2013-02-19 07:45:00
1:56 AM,45.9,45.9,100,29.99,8.0,South,11.5,-,0.02,Rain,Light Rain,170,2013-02-19 07:56:00
2:21 AM,46.4,46.4,100,29.96,10.0,SSW,5.8,-,0.00,Rain,Light Rain,210,2013-02-19 08:21:00
2:56 AM,46.9,46.9,100,30.00,8.0,SSW,8.1,-,0.01,Rain,Light Rain,210,2013-02-19 08:56:00
3:33 AM,46.4,46.4,100,29.97,1.8,SW,3.5,-,0.01,Rain,Rain,220,2013-02-19 09:33:00
3:48 AM,46.4,46.4,100,29.97,3.0,SW,5.8,-,0.01,Rain,Light Rain,220,2013-02-19 09:48:00
3:56 AM,46.9,46.9,100,30.01,9.0,Calm,Calm,-,0.01,,Overcast,0,2013-02-19 09:56:00
4:06 AM,46.4,46.4,100,29.98,1.8,WSW,6.9,-,0.00,Rain,Light Rain,240,2013-02-19 10:06:00
4:13 AM,46.4,46.4,100,29.98,3.0,WSW,9.2,-,0.00,Rain,Light Rain,250,2013-02-19 10:13:00
4:56 AM,45.9,45.9,100,30.05,5.0,NW,15.0,23.0,0.00,,Overcast,320,2013-02-19 10:56:00
5:20 AM,42.8,42.8,100,30.03,7.0,NW,8.1,16.1,N/A,,Overcast,320,2013-02-19 11:20:00
5:41 AM,42.8,41.0,93,30.05,9.0,NW,9.2,-,N/A,,Overcast,310,2013-02-19 11:41:00
5:56 AM,41.9,39.9,93,30.10,10.0,NW,5.8,-,N/A,,Overcast,320,2013-02-19 11:56:00
6:56 AM,39.9,36.9,89,30.13,10.0,NW,8.1,-,N/A,,Overcast,310,2013-02-19 12:56:00
7:08 AM,39.2,35.6,87,30.11,10.0,NW,10.4,16.1,N/A,,Overcast,320,2013-02-19 13:08:00
7:56 AM,39.9,34.9,82,30.17,10.0,NW,5.8,-,N/A,,Partly Cloudy,320,2013-02-19 13:56:00
9:56 AM,43.9,29.1,56,30.21,10.0,NW,12.7,-,N/A,,Clear,320,2013-02-19 15:56:00
10:56 AM,45.9,28.0,50,30.22,10.0,NNW,10.4,20.7,N/A,,Clear,330,2013-02-19 16:56:00
11:56 AM,48.9,27.1,43,30.21,10.0,NW,12.7,20.7,N/A,,Clear,320,2013-02-19 17:56:00
12:56 PM,48.9,21.0,33,30.20,10.0,NW,11.5,-,N/A,,Clear,310,2013-02-19 18:56:00
1:56 PM,50.0,21.0,32,30.20,10.0,WNW,12.7,-,N/A,,Clear,300,2013-02-19 19:56:00
2:56 PM,48.9,20.1,32,30.21,10.0,WNW,11.5,19.6,N/A,,Clear,300,2013-02-19 20:56:00
3:56 PM,47.8,17.1,29,30.22,10.0,WNW,8.1,20.7,N/A,,Clear,290,2013-02-19 21:56:00
4:56 PM,46.9,16.2,29,30.23,10.0,NW,9.2,-,N/A,,Clear,310,2013-02-19 22:56:00
6:56 PM,39.9,19.0,43,30.25,10.0,NW,3.5,-,N/A,,Clear,320,2013-02-20 00:56:00
8:56 PM,36.0,21.0,55,30.29,10.0,NNW,6.9,-,N/A,,Clear,330,2013-02-20 02:56:00
9:56 PM,32.9,21.0,62,30.29,10.0,NNW,5.8,-,N/A,,Clear,330,2013-02-20 03:56:00
10:56 PM,30.0,23.0,75,30.30,10.0,Calm,Calm,-,N/A,,Clear,0,2013-02-20 04:56:00
11:56 PM,28.0,23.0,81,30.29,10.0,Calm,Calm,-,N/A,,Clear,0,2013-02-20 05:56:00